Location: Unspecified
(0.0000°N, 0.0000°E)
Time: 01:51:53
(UTC+00:00)

Vanguard 2 - Visible Passes

Search period start: 26 June 2017 00:00
Search period end: 06 July 2017 00:00
Orbit: 554 x 2940 km, 32.9° (Epoch: 25 June)

Date Brightness Start Highest point End Pass type
(mag) Time Alt. Az. Time Alt. Az. Time Alt. Az.
26 Jun 11.6 01:01:28 10° NNW 01:07:55 14° N 01:13:22 10° NNE visible
26 Jun 10.4 03:13:01 10° NNW 03:21:55 26° NNE 03:27:59 10° ENE visible
26 Jun 7.9 05:24:07 10° NW 05:32:19 85° SW 05:37:22 10° SE visible
26 Jun 10.8 18:25:35 10° WSW 18:37:59 55° NNW 18:55:09 10° NE visible
26 Jun 11.7 20:40:28 10° WNW 20:53:01 26° NNW 21:06:27 10° NNE visible
26 Jun 11.9 23:02:30 10° NW 23:10:44 15° N 23:18:12 10° NNE visible
27 Jun 11.4 01:19:31 10° NNW 01:27:41 17° NNE 01:34:08 10° NE visible
27 Jun 9.9 03:30:51 10° NW 03:40:51 37° NNE 03:47:10 10° E visible
27 Jun 11.2 18:44:39 10° W 18:56:56 43° NNW 19:13:16 10° NE visible
27 Jun 11.9 21:01:19 10° WNW 21:12:48 21° NNW 21:24:40 10° NNE visible
27 Jun 11.8 23:22:54 10° NNW 23:31:00 15° N 23:38:11 10° NNE visible
28 Jun 11.1 01:37:24 10° NNW 01:47:13 21° NNE 01:54:27 10° ENE visible
28 Jun 9.2 03:48:53 10° NW 03:59:35 53° NNE 04:05:56 10° ESE visible
28 Jun 11.4 19:04:09 10° W 19:16:06 34° NNW 19:31:19 10° NNE visible
28 Jun 11.9 21:22:29 10° NW 21:32:50 18° NNW 21:43:14 10° NNE visible
28 Jun 11.7 23:42:17 10° NNW 23:51:09 16° N 23:58:47 10° NE visible
29 Jun 10.7 01:55:16 10° NNW 02:06:31 28° NNE 02:14:16 10° ENE visible
29 Jun 8.6 04:07:12 10° NW 04:18:04 79° NE 04:24:22 10° ESE visible
29 Jun 11.7 19:24:05 10° WNW 19:35:31 27° NNW 19:49:24 10° NNE visible
29 Jun 11.9 21:43:35 10° NW 21:53:05 16° N 22:02:22 10° NNE visible
30 Jun 11.5 00:00:55 10° NNW 00:11:08 19° NNE 00:19:31 10° NE visible
30 Jun 10.3 02:13:13 10° NW 02:25:37 37° NNE 02:33:36 10° E visible
30 Jun 8.4 04:25:48 10° WNW 04:36:20 71° SW 04:42:31 10° SE visible
30 Jun 11.8 19:44:30 10° WNW 19:55:12 22° NNW 20:07:36 10° NNE visible
30 Jun 11.9 22:04:08 10° NNW 22:13:26 16° N 22:22:18 10° NNE visible
01 Jul 11.3 00:19:09 10° NNW 00:30:52 23° NNE 00:39:58 10° ENE visible
01 Jul 9.7 02:31:17 10° NW 02:44:30 50° NNE 02:52:32 10° ESE visible
01 Jul 8.7 04:44:48 10° WNW 04:54:26 46° SW 05:00:21 10° SSE visible
01 Jul 11.9 20:05:17 10° NW 20:15:09 19° NNW 20:26:06 10° NNE visible
01 Jul 11.8 22:23:50 10° NNW 22:33:45 17° N 22:42:54 10° NE visible
02 Jul 11.0 00:37:13 10° NNW 00:59:49 10° ENE 00:59:58 10° ENE visible
02 Jul 9.2 02:49:33 10° NW 03:03:09 69° NNE 03:11:08 10° ESE visible
02 Jul 9.1 05:04:18 10° W 05:12:27 30° SW 05:17:53 10° SSE visible
02 Jul 11.6 18:08:50 10° WNW 18:18:32 28° NNW 18:31:36 10° NNE visible
02 Jul 11.9 20:26:10 10° NW 20:35:20 17° N 20:45:08 10° NNE visible
02 Jul 11.6 22:42:46 10° NNW 22:53:54 19° NNE 23:02:51 12° NE visible
03 Jul 11.0 00:55:15 10° NW 01:20:09 - E 01:04:04 29° N visible
03 Jul 8.9 03:21:47 86° S 03:21:47 86° S 03:29:25 10° SE visible
03 Jul 9.6 05:24:30 10° W 05:30:30 19° SW 05:34:58 10° S visible
03 Jul 11.8 18:28:55 10° WNW 18:38:04 22° NNW 18:49:41 10° NNE visible
03 Jul 11.9 20:46:42 10° NNW 20:55:39 16° N 21:04:57 10° NNE visible
03 Jul 11.4 23:01:13 10° NNW 23:13:48 23° NNE 23:17:52 21° NE visible
04 Jul 11.2 01:13:20 10° NW 01:39:20 - ESE 01:19:08 24° NNW visible
04 Jul 8.9 03:40:55 60° S 03:40:55 60° S 03:47:26 10° SE visible
04 Jul 11.9 18:49:26 10° NW 18:57:51 18° N 19:07:58 10° NNE visible
04 Jul 11.8 21:06:31 10° NNW 21:16:00 16° N 21:25:36 10° NE visible
04 Jul 11.2 23:19:23 10° NNW 23:33:16 28° NNE 23:33:16 28° NNE visible
05 Jul 11.2 01:31:32 10° NW 01:57:59 - ESE 01:34:34 17° NW visible
05 Jul 9.3 03:59:32 41° SSW 03:59:32 41° SSW 04:05:13 10° SSE visible
05 Jul 11.9 19:10:10 10° NW 19:17:52 16° N 19:26:44 10° NNE visible
05 Jul 11.7 21:25:34 10° NNW 21:36:14 18° NNE 21:46:43 10° NE visible
